Location: Highland Meadows Observing Site
(48.4428°N, 114.5461°W)
Time: 22:33:41
(UTC-06:00)

Gurwin Techsat 1B - Visible Passes

Search period start: 26 May 2016 00:00
Search period end: 05 June 2016 00:00
Orbit: 811 x 815 km, 98.6° (Epoch: 26 May)

Date Brightness Start Highest point End Pass type
(mag) Time Alt. Az. Time Alt. Az. Time Alt. Az.
26 May 10.2 03:00:20 10° NE 03:04:49 27° E 03:09:02 11° SSE visible
26 May 9.1 04:39:53 10° N 04:45:01 49° WNW 04:50:07 10° SW visible
27 May 10.7 02:38:14 10° NE 02:41:46 18° E 02:45:17 10° SE visible
27 May 8.7 04:16:58 10° NNE 04:22:18 74° WNW 04:27:13 12° SSW visible
28 May 11.1 02:17:12 10° ENE 02:18:38 11° E 02:20:05 10° E visible
28 May 8.8 03:54:11 10° NNE 03:59:32 74° ESE 04:04:12 14° S visible
29 May 9.3 03:31:31 10° NNE 03:36:41 48° E 03:41:10 13° S visible
30 May 10.0 03:09:01 10° NNE 03:13:45 32° E 03:18:08 11° SSE visible
30 May 9.3 04:48:49 10° N 04:53:48 42° WNW 04:58:47 10° SW visible
31 May 10.6 02:46:45 10° NE 02:50:44 21° E 02:54:41 10° SE visible
31 May 8.8 04:25:52 10° N 04:31:08 63° WNW 04:36:19 10° SSW visible
01 Jun 10.9 02:25:05 10° ENE 02:27:38 13° E 02:30:11 10° ESE visible
01 Jun 8.7 04:03:01 10° NNE 04:08:23 86° ESE 04:13:17 12° SSW visible
02 Jun 9.1 03:40:18 10° NNE 03:45:34 57° E 03:50:15 13° S visible
03 Jun 9.7 03:17:43 10° NNE 03:22:39 37° E 03:27:12 12° SSE visible
04 Jun 10.3 02:55:21 10° NE 02:59:41 25° E 03:03:59 10° SSE visible
04 Jun 9.0 04:34:46 10° N 04:39:57 54° WNW 04:45:07 10° SW visible
